Regional Weather Roundup
Issued by NWS New Orleans/Baton Rouge, LA

Home | Current Version | Previous Version | Graphics & Text | Print | Product List | Glossary On
Versions: 1 2 3 4 5 6 7 8 9 10 11 12 13 14 15 16 17 18 19 20 21 22 23 24 25 26 27 28 29 30 31 32 33 34 35 36 37 38 39 40 41 42 43 44 45 46 47 48 49 50
355
ASUS44 KLIX 240401
RWRLIX
NEW ORLEANS REGIONAL WEATHER ROUNDUP
NATIONAL WEATHER SERVICE NEW ORLEANS LA
1100 PM CDT THU OCT 23 2014

NOTE: "FAIR" INDICATES FEW OR NO CLOUDS BELOW 12,000 FEET WITH NO
      SIGNIFICANT WEATHER AND/OR OBSTRUCTIONS TO VISIBILITY.
      SKY/WX - SKY CONDITION AND SIGNIFICANT WEATHER.
      TMP - AIR TEMPERATURE.     DP    - DEWPOINT TEMPERATURE.
      RH  - RELATIVE HUMIDITY.   PRES  - PRESSURE.
      HI  - HEAT INDEX.          WCI   - WIND CHILL INDEX.

*  THESE STATIONS ARE NOT NWS OR FAA STATIONS AND ARE NOT UNDER
   NWS QUALITY CONTROL.

LAZ038-040-048-061>063-065>067-069-240500-
SOUTHEAST LOUISIANA

CITY           SKY/WX    TMP DP  RH WIND       PRES   REMARKS
N.O. AUDUBON     N/A     61  56  81 MISG        N/A
N.O. INTL ARPT PTCLDY    63  52  67 NE3       30.08S
N.O. LAKEFRONT PTCLDY    69  53  56 NE12      30.08F
N.O. DOWNTOWN*   N/A     68  48  49 CALM      30.08F
SLIDELL        PTCLDY    56  52  86 CALM      30.08S
BATON ROUGE    CLEAR     56  51  84 NE3       30.10S
BOOTHVILLE     MOCLDY    69  54  58 NE5       30.07S
BELLE CHASSE   PTCLDY    56  52  86 CALM      30.07F
BOGALUSA*        N/A     58  49  72 CALM      30.11S
NEW ROADS*       N/A     56  51  84 CALM      30.11S
GONZALES*        N/A     58  54  86 N5        30.09F
HAMMOND*       NOT AVBL
HOUMA*         CLEAR     56  52  88 N7        30.08S
PORT FOURCHON* CLEAR     68  59  73 NE6       30.10F

$$

MSZ070-080>082-240500-
SOUTHERN MISSISSIPPI

CITY           SKY/WX    TMP DP  RH WIND       PRES   REMARKS
MCCOMB           N/A     56  49  77 N6        30.11S
GULFPORT       CLOUDY    62  48  60 N5        30.07S
BILOXI         NOT AVBL
PASCAGOULA     CLOUDY    56  52  86 CALM      30.07F

$$

COASTAL OBSERVATIONS
LAKE AND NEARSHORE STATIONS

STATION/POSITION TIME  TEMP    WIND        PRES    WAVE
                       AIR SEA DIR/SP/G            HT/PER
                 (UTC) (F)     (DEG/KT/KT) (MB)    (FT/S)
PASCAGOULA       0300   63     340/  6/  6 1017.8
WAVELAND YACHT   0300   66      30/  6/ 10 1017.8
GRAND ISLE       0300   70 73   70/  6/  9 1018.8
SOUTHWEST PASS   0300   71 81              1018.3
NEW CANAL        0300   69 71   40/  9/ 10 1018.8
SHELL BEACH      0300   67 68  250/  3/  4 1018.5

OFFSHORE STATIONS

STATION/POSITION TIME  TEMP    WIND        PRES    WAVE
                       AIR SEA DIR/SP/G            HT/PER
                 (UTC) (F)     (DEG/KT/KT) (MB)    (FT/S)
64 S DAUPHIN ISL 0325   72 78   60/ 10/ 12 1018.1    3/ 6

$$




USA.gov is the U.S. government's official web portal to all federal, state and local government web resources and services.